Location: Bermondsey
(51.5000°N, 0.0667°W)
Time: 13:17:34
(UTC+00:00)

Daily predictions for brighter satellites

Satellite Brightness Start Highest point End
(mag) Time Altitude Azimuth Time Altitude Azimuth Time Altitude Azimuth
CZ-2C R/B 3.2 19:33:27 10° N 19:38:37 66° WNW 19:43:49 10° SSW
Cosmos 1634 Rocket 4.1 19:32:41 10° S 19:38:49 59° E 19:44:56 10° NNE
MOS 1 4.4 19:36:03 10° SSE 19:41:39 70° ENE 19:47:17 10° NNW
Cosmos 405 3.0 19:38:38 10° SSW 19:42:07 86° WNW 19:45:37 10° NNE
SAR-Lupe-4 3.9 19:38:44 10° N 19:42:21 73° WNW 19:45:55 10° SSW
ERS-2 2.3 19:40:04 10° NNE 19:43:45 81° WNW 19:47:23 10° SSW
Cosmos 192 4.5 19:38:55 10° NNW 19:43:53 63° ENE 19:48:48 10° SE
Cosmos 1076 Rocket 3.9 19:39:51 10° N 19:44:04 46° ENE 19:48:14 10° SSE
ARIANE 5 R/B 4.4 19:42:01 10° E 19:44:51 17° ENE 19:47:42 10° NNE
NOSS 7 (E) 4.3 19:41:24 10° SW 19:45:01 71° SE 19:48:07 10° NE
ATLAS 2AS CENTAUR R/B 3.1 19:37:18 10° SW 19:45:15 90° SSE 19:53:01 10° NE
SL-16 R/B 3.2 19:46:28 10° NNW 19:51:37 33° NE 19:56:44 10° ESE
Cosmos 1980 3.8 19:46:00 10° NNW 19:51:43 72° ENE 19:57:24 10° SE
IGS 5A 4.3 19:48:16 10° SE 19:52:01 34° ENE 19:55:48 10° N
IRS-1A Rocket 4.3 19:46:30 10° SSE 19:52:07 83° ENE 19:57:53 10° NNW
CZ-4 R/B 4.4 19:52:26 10° SW 19:54:59 16° W 19:57:33 10° NW
Cosmos 2058 Rocket 3.2 19:51:57 10° SSW 19:56:18 80° W 20:00:41 10° N
Cosmos 389 Rocket 3.0 19:53:52 10° SSE 19:57:09 37° E 20:00:29 10° NNE
SL-4 R/B 3.7 19:55:11 10° S 19:58:01 17° SE 20:00:57 10° E
SME Rocket 3.8 19:56:20 10° N 20:00:07 60° WNW 20:04:51 10° SSW
NOSS 0 Rocket 4.2 19:54:34 10° NW 20:00:49 76° WSW 20:07:01 10° SSE
Cosmos 2251 Rocket 3.5 19:57:25 10° SSW 20:02:46 75° ESE 20:08:07 10° NNE
Ariane Rocket 3.1 19:58:07 10° SSE 20:03:10 86° WSW 20:08:16 10° NNW
Cosmos 1455 2.7 20:01:14 10° SSW 20:04:56 64° WNW 20:08:40 10° N
Cosmos 1812 Rocket 4.0 20:01:36 10° SSE 20:05:47 41° E 20:10:00 10° NNE
COSMOS 2428 3.9 20:02:35 10° NW 20:07:59 42° WSW 20:13:20 10° S
Cosmos 2219 Rocket 3.7 20:02:49 10° NW 20:07:59 36° WSW 20:13:05 10° S
Meteor 2-1 Rocket 4.3 20:03:03 10° S 20:08:55 83° E 20:14:54 10° NNE
COSMOS 2487 4.4 20:06:21 10° SW 20:09:28 33° WNW 20:12:36 10° N
SPOT 1/Viking Rocket 4.2 20:04:57 11° SE 20:09:38 39° ENE 20:14:29 10° N
Cosmos 614 Rocket 3.9 20:04:53 10° S 20:09:57 64° ESE 20:15:01 10° NNE
ATLAS 5 CENTAUR R/B 3.9 20:06:21 10° WNW 20:10:01 25° NNW 20:14:11 10° NE
BREEZE-M DEB (TANK) 4.1 20:06:47 10° WSW 20:10:05 64° SSE 20:19:12 10° E
FALCON 9 DEB 3.1 20:09:13 10° WSW 20:12:37 67° SSE 20:16:03 10° ENE
CZ-4C R/B 3.8 20:08:13 10° W 20:13:19 39° NNW 20:19:28 10° NE
Orbus 7S? 3.3 20:10:40 10° SW 20:13:35 71° SE 20:19:17 10° ENE
Cosmos 1655 Rocket 4.2 20:08:52 10° N 20:15:05 58° ENE 20:21:14 10° SSE
ATLAS 3B R/B 3.6 20:09:24 10° NW 20:16:02 47° WSW 20:22:55 10° SSE
Cosmos 2344 3.5 20:08:45 10° SW 20:16:10 76° SE 20:24:16 10° NE
RESURS DK-1 2.9 20:12:32 10° SW 20:16:39 65° NW 20:20:47 10° NNE
SPOT 3 Rocket 3.6 20:11:57 10° SSE 20:17:07 70° ENE 20:22:17 10° NNW
Meteor 2-3 Rocket 4.0 20:14:38 10° N 20:20:20 56° ENE 20:25:24 13° SSE
FALCON 9 DEB 4.2 20:21:23 10° SSW 20:23:40 20° SE 20:23:54 19° SE
Terra 3.5 20:20:42 12° E 20:23:42 20° ENE 20:27:10 10° N
USA 215 3.3 20:18:58 12° ESE 20:25:05 82° NNE 20:31:40 10° WNW
Cosmos 1809 Rocket 4.5 20:20:14 10° N 20:26:22 88° ENE 20:32:30 10° S
Resurs 01 Rocket 1.6 20:22:57 10° SSE 20:27:24 88° E 20:31:54 10° NNW
SPOT 5 4.0 20:25:51 15° ESE 20:28:49 28° ENE 20:32:57 10° N
Cosmos 405 Rocket 3.7 20:25:20 10° NNW 20:29:13 48° W 20:33:01 10° S
Resurs 1-3 4.3 20:27:15 10° S 20:31:32 54° W 20:35:52 10° NNW
MetOp-B 4.1 20:30:18 13° SSE 20:35:10 76° ENE 20:40:33 10° NNW
ERS-1 Rocket 3.8 20:34:04 17° ESE 20:37:16 35° ENE 20:41:49 10° N
Cosmos 2237 Rocket 2.6 20:34:12 10° NW 20:39:46 59° WSW 20:44:53 12° S
Meteor 2-14 Rocket 4.5 20:35:50 10° NNW 20:41:57 86° W 20:48:01 10° S
OBJECT-B 3.6 20:41:42 10° SW 20:43:56 17° W 20:46:10 10° NW
FALCON 9 DEB 4.5 20:41:38 10° SSW 20:43:01 19° S 20:43:01 19° S
Cosmos 407 Rocket 3.4 20:40:26 10° SSW 20:45:32 71° ESE 20:50:43 10° NNE
IRIDIUM 104 4.4 20:40:23 10° S 20:45:36 79° W 20:50:52 10° N
Cosmos 2263 Rocket 4.1 20:51:48 11° E 20:51:48 11° E 20:52:44 10° ENE
Lacrosse 5 rocket 2.6 20:47:47 10° WNW 20:51:46 40° N 20:55:58 10° ENE
Cosmos 2084 Rocket 3.6 20:49:39 10° SSW 20:53:24 42° SE 20:57:16 10° NE
Cosmos 1023 Rocket 4.3 20:48:43 10° SSW 20:53:46 75° ESE 20:58:52 10° NNE
Landsat 7 4.0 20:51:00 14° S 20:55:06 70° WSW 20:59:53 10° NNW
Cosmos 2279 Rocket 4.4 20:49:04 10° SSW 20:55:12 66° WNW 21:01:25 10° N
Cosmos 2082 4.3 20:53:32 18° SSE 20:57:01 35° ESE 21:02:04 10° NE
Cosmos 1869 3.8 20:55:43 28° SE 20:57:15 41° E 21:00:59 10° NNE
Cosmos 2227 Rocket 2.2 20:51:51 10° SSW 20:57:26 62° ESE 21:03:01 10° NE
Cosmos 1140 Rocket 3.4 20:56:25 10° SSW 21:01:32 83° ESE 21:06:42 10° NNE
Cosmos 1954 Rocket 4.2 20:58:20 15° S 21:02:26 48° ESE 21:07:24 10° NNE
Cosmos 1818 4.4 20:57:09 10° WSW 21:02:31 55° NW 21:07:55 10° NE
Cosmos 2297 Rocket 2.1 20:58:36 10° SSW 21:04:15 84° ESE 21:09:57 10° NNE
Cosmos-2242 2.9 21:01:01 12° S 21:05:00 89° E 21:09:19 10° N
Cosmos 482 Debris 3.5 21:04:39 10° W 21:06:19 45° WNW 21:06:19 45° WNW
Genesis I 4.2 21:03:43 10° NW 21:07:28 38° WSW 21:09:24 23° S
Cosmos 2151 3.9 21:04:07 10° NNW 21:08:16 47° W 21:11:50 13° SSW
Cosmos 1633 3.9 21:05:54 10° NNW 21:09:13 35° W 21:12:01 13° SSW
Cosmos 2219 3.1 21:06:16 10° SSW 21:11:53 87° ESE 21:17:33 10° NNE
Spot 2 Rocket 3.5 21:09:33 24° SSE 21:12:45 87° WSW 21:17:51 10° NNW
Cosmos 1408 Rocket 3.8 21:12:44 10° N 21:16:58 51° ENE 21:18:23 36° SE
Cosmos 2266 Rocket 4.4 21:11:08 10° NNW 21:17:28 65° W 21:22:48 14° S
USA 229 DEB 4.2 21:10:48 10° NW 21:17:53 61° NE 21:23:02 22° ESE
USA 229 4.2 21:10:53 10° NW 21:17:58 60° NE 21:23:09 21° ESE
Cosmos 44 Rocket 3.8 21:16:06 25° S 21:18:28 40° ESE 21:23:19 10° NE
Meteor 1-4 Rocket 2.4 21:19:03 48° SSE 21:19:44 62° E 21:23:15 10° NNE
ARIANE 5 R/B 2.7 21:18:32 28° S 21:20:49 76° WSW 21:25:12 10° NNW
USA 245 3.8 21:23:37 27° SSW 21:25:08 45° WSW 21:28:06 10° NNW
Cosmos 468 Rocket 3.9 21:22:24 10° NNW 21:27:35 83° ENE 21:29:45 36° SSE
CZ-2C R/B 4.1 21:23:19 10° N 21:27:43 62° WNW 21:32:05 10° SSW
COSMOS 2455 2.9 21:24:08 10° SSW 21:30:00 58° ESE 21:35:55 10° NE
Cosmos 2221 3.0 21:29:48 39° ESE 21:30:17 40° E 21:34:18 10° NNE
Cosmos 841 Rocket 4.0 21:28:01 10° NNW 21:33:06 49° ENE 21:35:03 33° ESE
Cosmos 1743 Rocket 4.0 21:30:48 10° N 21:34:58 43° ENE 21:35:47 39° ESE
NOSS 3-1 (A) 4.2 21:28:43 10° NW 21:35:50 68° NE 21:41:02 25° ESE
SL-16 R/B 2.5 21:30:30 10° NW 21:36:06 59° WSW 21:38:53 29° S
SL-4 R/B 2.3 21:32:33 10° SW 21:36:56 53° SSE 21:38:43 33° E
ATLAS 2AS CENTAUR R/B 4.3 21:29:42 10° W 21:37:06 42° NNW 21:44:14 10° NE
Nadezhda 2 Rocket 4.4 21:31:35 10° N 21:37:54 83° E 21:41:00 32° SSE
Cosmos 1763 Rocket 3.4 21:37:00 10° NNW 21:42:06 80° WSW 21:43:55 40° SSE
Timation 2 Rocket 4.2 21:38:21 10° SW 21:44:53 73° NW 21:51:10 10° NNE
CZ-4B DEB 4.1 21:45:00 87° NE 21:45:00 87° NE 21:48:13 10° NNW
Timation 1 Rocket 4.2 21:39:18 10° SSW 21:45:16 77° ESE 21:51:16 10° NE
Cosmos 1862 3.2 21:42:02 10° N 21:46:01 81° ENE 21:46:37 62° SSE
FALCON 9 DEB 3.4 21:46:10 10° W 21:49:35 66° N 21:50:09 54° NE
Cosmos 540 Rocket 3.4 21:47:35 10° NNW 21:52:45 73° ENE 21:54:12 47° SE
Cosmos 1500 Rocket 3.6 21:49:00 10° N 21:53:28 66° ENE 21:54:14 55° SE
SL-08 R/B 4.4 21:49:55 10° N 21:56:07 77° E 21:58:34 39° SSE
ATLAS 5 CENTAUR R/B 4.1 21:52:24 10° NW 21:56:12 22° N 22:00:29 10° ENE
NOSS 3-1 (C) 4.0 21:52:59 10° NW 22:00:17 77° SW 22:04:15 35° SSE
Cosmos 676 Rocket 4.3 21:55:27 10° SW 22:00:31 64° WNW 22:05:42 10° NNE
Meteor 2-15 4.4 21:57:22 27° SSW 22:00:51 83° W 22:06:57 10° N
Terra 1.9 21:59:35 44° S 22:00:59 70° WSW 22:05:46 10° NNW
Cosmos 1943 3.3 21:57:23 10° NNW 22:03:00 68° NE 22:04:47 43° ESE
CZ-4C R/B 4.4 21:58:17 10° WNW 22:03:32 29° N 22:09:43 10° ENE
Resurs 01 Rocket 4.3 22:02:27 10° WSW 22:04:33 13° W 22:06:40 10° WNW
SPOT 5 3.5 22:05:05 33° SSW 22:06:42 46° W 22:11:22 10° NNW
USA 215 3.8 22:06:17 34° S 22:08:29 44° SW 22:14:41 10° WNW
Cosmos 1553 Rocket 3.8 22:08:29 42° S 22:10:37 75° E 22:16:44 10° NNE
TSX-5 3.9 22:11:33 55° SSW 22:12:31 87° ESE 22:16:23 10° NE
H-2A R/B 3.5 22:09:18 10° NNE 22:13:33 78° WNW 22:14:18 58° SW
ALOS 2 4.1 22:14:51 24° ENE 22:15:26 25° ENE 22:19:02 10° N
ERS-1 Rocket 3.9 22:14:04 28° SW 22:16:02 39° W 22:20:45 10° NNW
BREEZE M DEB (TANK) 3.4 22:14:10 10° W 22:17:01 30° WSW 22:17:01 30° WSW
Cosmos 1417 Rocket 4.4 22:19:39 44° S 22:21:46 77° E 22:28:02 10° NNE
Cosmos 1606 3.1 22:22:29 53° NE 22:22:29 53° NE 22:25:33 10° NNE
Aureole 1 Rocket 3.3 22:22:52 57° S 22:23:51 72° ESE 22:28:21 10° NNE
Cosmos 1570 Rocket 3.9 22:21:04 10° NNW 22:26:24 88° ENE 22:27:21 62° SSE
Lacrosse 5 rocket 1.4 22:27:02 10° WNW 22:31:22 79° NNE 22:31:36 75° ENE
Cosmos 2263 Rocket 2.1 22:33:26 59° SE 22:34:01 63° ESE 22:39:33 10° NE
SeaSat 1 3.0 22:30:26 10° NE 22:34:31 42° E 22:34:31 42° E
Cosmos 921 Rocket 3.1 22:32:50 10° NNW 22:37:15 67° WSW 22:37:17 67° WSW
Meteor 2-17 Rocket 4.5 22:31:29 10° N 22:37:38 68° ENE 22:39:05 51° SE
Cosmos 2082 4.5 22:35:33 10° SW 22:40:59 49° NW 22:46:28 10° NNE
NOSS 2-1 (C) 4.1 22:42:17 40° NNE 22:42:17 40° NNE 22:44:55 10° NE
Cosmos 2227 Rocket 3.9 22:36:49 10° WSW 22:41:52 32° NW 22:46:57 10° NNE
Iridium 4 Rocket 4.3 22:41:38 37° E 22:41:54 37° E 22:46:50 10° NNE
Cosmos 1741 Rocket 4.1 22:41:18 43° SW 22:43:02 72° WNW 22:48:21 10° NNE
Cosmos 1850 Rocket 4.3 22:44:50 39° SW 22:46:41 65° WNW 22:51:56 10° NNE
Cosmos 1844 Rocket 4.3 22:48:08 20° E 22:48:08 20° E 22:51:08 10° NE
Cosmos 1933 4.1 22:48:09 46° NE 22:48:09 46° NE 22:51:20 10° NNE
NOSS 2-1 (D) 4.1 22:48:37 42° N 22:48:37 42° N 22:51:29 10° NE
Cosmos 2297 Rocket 4.3 22:44:20 10° W 22:49:00 26° NW 22:53:42 10° NNE
Cosmos 2315 Rocket 4.2 22:48:28 50° SE 22:49:36 57° E 22:55:50 10° NNE
Cosmos 1603 3.9 22:45:03 10° NW 22:50:40 58° WSW 22:51:30 52° SSW
USA 281 4.4 22:47:12 19° E 22:51:10 35° NE 22:57:00 10° NNW
Spot 4 3.7 22:52:41 79° SSE 22:52:58 87° ENE 22:57:53 10° NNW
Cosmos 1242 Rocket 4.5 22:54:37 23° NE 22:54:37 23° NE 22:56:24 10° NNE
Cosmos 44 Rocket 4.3 22:55:01 10° WSW 22:59:59 48° NW 23:05:05 10° NE
Cosmos 1805 Rocket 4.1 22:58:00 10° NNW 23:02:06 47° W 23:02:06 47° W
Cosmos 968 Rocket 4.3 23:03:16 39° E 23:03:16 39° E 23:07:35 10° NE
Cosmos 1602 4.4 22:59:32 10° N 23:02:31 51° N 23:02:31 51° N
Sich 1 3.4 23:00:08 10° NNW 23:04:02 56° WNW 23:04:02 56° WNW
Cosmos 2208 Rocket 4.2 22:59:57 10° NNW 23:05:11 58° WSW 23:05:36 56° SW
Meteor 1-14 Rocket 4.5 23:01:48 10° N 23:07:46 63° ENE 23:08:50 54° ESE
Cosmos 2221 4.3 23:06:36 21° W 23:08:00 25° WNW 23:11:33 10° NNW
NOSS 2-2 (D) 4.4 23:03:06 10° NW 23:08:04 68° NE 23:10:04 43° ESE
USA 229 DEB 4.2 23:01:55 10° NW 23:08:52 49° WSW 23:10:27 43° SSW
USA 229 4.2 23:02:00 10° NW 23:08:58 50° WSW 23:10:34 43° SSW
Cosmos 1437 Rocket 3.6 23:14:56 47° NNW 23:14:56 47° NNW 23:17:54 10° N
Cosmos 2074 Rocket 4.4 23:08:02 10° N 23:14:10 53° ENE 23:15:33 45° ESE
Cosmos 1470 Rocket 4.0 23:11:04 10° N 23:15:04 56° NE 23:15:04 56° NE
COSMOS 2455 4.1 23:10:35 10° WSW 23:16:14 40° NW 23:21:54 10° NNE
Cosmos 1709 Rocket 4.0 23:10:14 10° NNW 23:16:25 69° W 23:17:37 55° SSW
SL-4 R/B 3.5 23:11:54 10° W 23:14:25 33° W 23:14:25 33° W
COBE Rocket 4.2 23:16:33 54° E 23:16:44 54° ENE 23:21:32 10° N
Cosmos 1633 Rocket 3.3 23:19:17 10° NNW 23:23:07 64° NW 23:23:07 64° NW
Cosmos 836 Rocket 4.4 23:23:42 10° NNW 23:29:02 88° ENE 23:29:17 82° SE
Cosmos 1933 Rocket 4.1 23:27:24 10° N 23:31:16 53° NE 23:31:16 53° NE
Cosmos 1486 Rocket 4.2 23:33:18 57° E 23:33:18 57° E 23:38:16 10° NNE
Cosmos 1666 Rocket 4.2 23:29:05 10° NNW 23:33:00 47° WNW 23:33:00 47° WNW
Cosmos 1666 3.9 23:34:40 10° N 23:37:24 38° NNE 23:37:24 38° NNE
Terra 4.3 23:38:50 10° W 23:39:39 10° W 23:40:27 10° WNW
ATLAS 5 CENTAUR R/B 3.2 23:37:06 10° NW 23:42:01 42° NNE 23:46:48 15° E
Cosmos 1328 Rocket 3.8 23:44:04 68° N 23:44:04 68° N 23:48:01 10° N
Meteor 1-26 Rocket 4.4 23:49:13 59° SW 23:50:11 69° WNW 23:55:59 10° N
ALOS 2 3.4 23:52:15 42° WNW 23:52:15 42° WNW 23:55:48 10° NNW
COSMOS 2406 4.5 23:48:14 10° NNW 23:53:29 36° NE 23:56:33 21° E
